SCP
0 0 0 0 0 0 0 0 0 0 0 0 0 0 0 0 0 0 0 0 0 0 0 0 0 0 0 0 0 0 0 0 0 0 0 0 0 0 0 0 0 0 0
0 0 0 0 0 0 0 0 0 0 0 0 0 0 0 0 0 0 0 0 0 0 0 0 0 0 0 0 0 0 0 0 0 0 0 0 0 0 0 0 0 0 0
0 0 0 0 0 0 0 0 0 0 0 0 0 0 0 0 0 0 0 0 0 0 0 0 0 0 0 0 0 0 0 0 0 0 0 0 0 0 0 0 0 0 0
0 0 0 0 0 0 0 0 0 0 0 0 0 0 0 0 0 0 0 0 0 0 0 0 0 0 0 0 0 0 0 0 0 0 0 0 0 0 0 0 0 0 0
0 0 0 0 0 0 0 0 0 0 0 0 0 0 0 0 0 0 0 0 0 0 0 0 0 0 0 0 0 0 0 0 0 0 0 0 0 0 0 0 0 0 0
0 0 0 0 0 0 0 0 0 0 0 0 0 0 0 0 0 0 0 0 0 0 0 0 0 0 0 0 0 0 0 0 0 0 0 0 0 0 0 0 0 0 0
0 0 0 0 0 0 0 0 0 0 0 0 0 0 0 0 0 0 0 0 0 0 0 0 0 0 0 0 0 0 0 0 0 0 0 0 0 0 0 0 0 0 0
0 0 0 0 0 0 0 0 0 0 0 0 0 0 0 0 0 0 0 0 0 0 0 0 0 0 0 0 0 0 0 0 0 0 0 0 0 0 0 0 0 0 0
0 0 0 0 0 0 0 0 0 0 0 0 0 0 0 0 0 0 0 0 0 0 0 0 0 0 0 0 0 0 0 0 0 0 0 0 0 0 0 0 0 0 0
0 0 0 0 0 0 0 0 0 0 0 0 0 0 0 0 0 0 0 0 0 0 0 0 0 0 0 0 0 0 0 0 0 0 0 0 0 0 0 0 0 0 0
0 0 0 0 0 0 0 0 0 0 0 0 0 0 0 0 0 0 0 0 0 0 0 0 0 0 0 0 0 0 0 0 0 0 0 0 0 0 0 0 0 0 0
0 0 0 0 0 0 0 0 0 0 0 0 0 0 0 0 0 0 0 0 0 0 0 0 0 0 0 0 0 0 0 0 0 0 0 0 0 0 0 0 0 0 0
0 0 0 0 0 0 0 0 0 0 0 0 0 0 0 0 0 0 0 0 0 0 0 0 0 0 0 0 0 0 0 0 0 0 0 0 0 0 0 0 0 0 0
0 0 0 0 0 0 0 0 0 0 0 0 0 0 0 0 0 0 0 0 0 0 0 0 0 0 0 0 0 0 0 0 0 0 0 0 0 0 0 0 0 0 0
0 0 0 0 0 0 0 0 0 0 0 0 0 0 0 0 0 0 0 0 0 0 0 0 0 0 0 0 0 0 0 0 0 0 0 0 0 0 0 0 0 0 0
0 0 0 0 0 0 0 0 0 0 0 0 0 0 0 0 0 0 0 0 0 0 0 0 0 0 0 0 0 0 0 0 0 0 0 0 0 0 0 0 0 0 0
0 0 0 0 0 0 0 0 0 0 0 0 0 0 0 0 0 0 0 0 0 0 0 0 0 0 0 0 0 0 0 0 0 0 0 0 0 0 0 0 0 0 0
0 0 0 0 0 0 0 0 0 0 0 0 0 0 0 0 0 0 0 0 0 0 0 0 0 0 0 0 0 0 0 0 0 0 0 0 0 0 0 0 0 0 0
0 0 0 0 0 0 0 0 0 0 0 0 0 0 0 0 0 0 0 0 0 0 0 0 0 0 0 0 0 0 0 0 0 0 0 0 0 0 0 0 0 0 0
0 0 0 0 0 0 0 0 0 0 0 0 0 0 0 0 0 0 0 0 0 0 0 0 0 0 0 0 0 0 0 0 0 0 0 0 0 0 0 0 0 0 0
0 0 0 0 0 0 0 0 0 0 0 0 0 0 0 0 0 0 0 0 0 0 0 0 0 0 0 0 0 0 0 0 0 0 0 0 0 0 0 0 0 0 0
0 0 0 0 0 0 0 0 0 0 0 0 0 0 0 0 0 0 0 0 0 0 0 0 0 0 0 0 0 0 0 0 0 0 0 0 0 0 0 0 0 0 0
0 0 0 0 0 0 0 0 0 0 0 0 0 0 0 0 0 0 0 0 0 0 0 0 0 0 0 0 0 0 0 0 0 0 0 0 0 0 0 0 0 0 0
0 0 0 0 0 0 0 0 0 0 0 0 0 0 0 0 0 0 0 0 0 0 0 0 0 0 0 0 0 0 0 0 0 0 0 0 0 0 0 0 0 0 0
0 0 0 0 0 0 0 0 0 0 0 0 0 0 0 0 0 0 0 0 0 0 0 0 0 0 0 0 0 0 0 0 0 0 0 0 0 0 0 0 0 0 0
0 0 0 0 0 0 0 0 0 0 0 0 0 0 0 0 0 0 0 0 0 0 0 0 0 0 0 0 0 0 0 0 0 0 0 0 0 0 0 0 0 0 0
Wind_Speed
13 12 13 11 10 11 10 11 11 9 10 10 10 9 8 7 6 6 5 5 5 4 3 3 3 2 2 1 1 1 1 1 5 6 3 4 5 7 10 8 9 9 10
12 12 13 12 12 12 11 11 11 11 10 10 9 9 8 7 7 7 7 6 6 5 5 4 4 3 3 2 2 2 2 3 4 8 6 4 6 8 10 11 10 10 9
12 13 13 13 14 13 13 12 11 11 10 9 9 10 9 8 7 7 7 6 6 6 5 5 5 4 4 3 4 3 3 4 4 6 9 6 6 7 11 11 9 8 10
13 14 15 15 15 14 13 12 12 11 11 11 10 9 8 8 8 7 7 6 6 6 6 6 5 6 5 5 4 5 4 5 5 7 9 9 8 8 8 10 12 8 10
15 16 15 13 12 11 12 12 11 11 11 10 9 8 7 7 7 8 8 7 7 6 6 6 6 8 9 7 5 5 5 4 4 5 8 9 9 9 9 10 13 13 12
17 15 12 12 12 12 12 12 11 10 9 9 10 10 9 8 14 17 11 7 7 8 8 7 7 7 10 13 13 12 10 6 5 5 8 10 11 10 10 11 13 14 12
14 12 12 13 13 13 12 12 12 12 10 10 10 10 10 12 18 18 18 9 8 8 8 7 6 6 7 7 10 13 12 14 14 9 10 11 11 11 13 15 13 14 15
13 13 13 13 13 12 12 13 12 9 10 10 10 11 10 12 19 18 18 10 8 9 9 8 8 7 8 8 7 8 9 9 11 9 9 10 10 11 11 12 12 12 14
15 15 14 14 14 13 14 13 10 9 10 10 8 10 11 12 18 19 17 7 8 10 9 9 9 9 13 16 10 9 10 9 13 16 16 15 18 18 15 7 6 7 10
17 15 13 13 14 15 14 11 8 9 10 9 8 9 10 10 15 18 18 6 7 8 7 9 12 15 16 17 11 9 11 9 7 7 8 10 10 11 13 8 5 6 7
11 11 12 13 13 12 10 8 8 8 7 8 8 7 8 9 12 17 18 8 8 7 7 8 9 17 19 20 17 11 14 11 5 4 4 5 5 6 6 6 6 6 8
10 11 11 11 10 9 10 9 8 9 9 8 7 6 6 6 9 14 19 18 14 8 9 7 8 17 19 20 16 16 19 13 2 2 3 4 5 5 5 7 8 9 10
10 10 9 9 8 8 10 10 8 8 7 7 7 8 6 5 7 15 16 19 20 12 8 14 16 18 18 15 18 20 12 4 3 3 5 5 5 5 6 7 8 9 11
10 9 8 8 7 6 6 7 8 8 8 7 7 7 5 4 5 5 5 7 12 12 9 10 16 19 17 13 9 10 5 4 5 5 5 5 4 4 5 5 6 7 8
8 7 7 6 7 6 6 5 7 6 7 8 6 5 5 6 7 10 7 6 5 7 5 3 4 5 6 6 5 5 4 4 5 4 4 4 5 5 5 5 4 5 6
7 6 5 5 5 5 5 2 5 6 8 9 8 7 6 8 8 10 12 13 13 13 8 5 6 7 8 8 8 7 6 6 6 5 4 4 5 5 5 5 5 5 8
6 6 5 5 5 5 5 5 4 3 5 6 7 7 7 7 8 8 9 9 9 9 6 5 6 6 7 7 7 7 7 6 5 5 5 4 4 4 4 5 5 6 7
4 5 5 4 4 5 5 4 4 4 3 1 1 2 2 3 4 5 6 4 3 3 3 4 4 4 5 5 6 6 6 5 5 5 5 4 4 3 4 5 5 6 7
4 3 3 3 4 4 4 4 3 3 3 2 1 2 4 4 4 4 3 0 1 2 3 3 3 3 4 4 5 5 5 5 4 4 4 4 4 3 4 5 5 7 7
3 5 4 4 4 4 4 4 4 3 3 2 2 1 1 2 1 2 1 1 1 2 3 3 4 4 4 4 4 4 4 4 4 4 4 4 4 4 5 5 5 5 6
4 4 5 4 4 4 4 4 4 3 3 2 1 2 3 2 1 1 2 2 2 3 3 3 4 4 4 3 3 4 5 5 4 4 4 4 4 4 4 4 5 5 6
4 4 4 4 4 3 3 3 3 3 3 2 1 1 2 1 1 1 2 3 3 3 3 4 4 4 4 4 4 4 5 5 5 4 4 4 4 4 4 4 4 5 5
4 4 4 4 3 4 4 3 3 2 2 1 1 1 1 1 2 3 3 4 4 4 4 4 4 5 4 4 4 4 5 5 5 4 4 4 4 4 4 4 5 5 5
4 4 4 3 3 3 3 2 2 2 2 2 2 2 3 3 3 4 4 4 4 4 4 4 5 7 8 6 4 4 5 6 5 4 6 5 5 4 4 4 5 6 7
3 3 3 2 2 2 2 2 2 2 2 2 3 3 3 3 4 4 4 4 5 5 6 6 5 6 8 8 7 6 8 11 9 5 5 5 6 6 5 6 6 6 7
2 2 2 1 1 2 2 2 2 3 3 3 3 4 4 4 4 5 4 4 5 5 6 5 6 8 9 7 8 10 11 12 11 11 7 6 6 6 6 5 7 7 7
Wind_Direction
169 167 164 166 160 159 160 160 158 154 153 155 153 149 147 147 144 138 141 145 145 150 153 155 161 157 157 163 164 175 195 202 268 284 263 305 305 315 318 309 308 304 309
170 166 166 165 162 164 165 165 161 159 160 159 156 155 157 157 157 156 160 164 168 176 181 181 191 184 188 191 191 206 221 224 249 288 297 309 309 312 309 309 310 310 304
169 168 168 170 171 172 170 168 166 164 163 162 162 165 167 167 168 172 171 175 184 191 192 197 202 198 211 206 206 216 225 241 237 271 292 301 303 308 310 307 301 295 301
175 176 178 179 178 175 171 170 170 169 169 171 172 172 171 173 176 178 180 184 192 202 205 208 209 209 216 213 219 222 225 237 246 267 285 297 302 304 305 315 315 311 308
181 184 186 179 173 169 170 172 171 174 176 174 171 172 173 178 187 185 188 191 198 210 217 220 221 223 227 225 226 221 221 233 247 266 284 294 300 313 316 316 311 312 304
187 189 179 173 173 175 175 173 175 177 175 174 179 179 184 195 203 201 195 198 205 213 223 225 227 229 239 247 251 251 243 236 236 252 281 288 297 306 310 310 311 312 312
186 180 176 176 179 180 176 176 182 182 178 183 187 188 197 208 208 209 206 199 208 216 221 223 229 225 221 234 251 260 263 265 261 266 276 282 294 303 307 308 308 307 302
183 181 179 179 181 177 177 185 187 181 186 190 194 197 203 215 215 215 213 207 212 221 222 221 227 231 224 228 235 243 244 248 256 264 267 276 284 293 298 302 306 303 296
187 187 184 181 180 180 187 191 187 183 192 196 194 198 207 220 220 220 216 207 221 230 227 224 227 233 240 244 243 243 250 251 260 263 268 279 290 300 305 306 305 305 302
192 188 181 181 184 188 193 188 183 188 196 195 203 205 211 220 223 223 221 210 224 234 232 232 233 236 242 245 240 237 249 253 246 256 270 285 294 297 299 293 286 290 297
177 170 174 183 188 188 184 180 180 186 187 195 208 210 213 220 229 228 226 215 221 231 236 237 236 244 248 248 245 238 246 254 230 226 250 273 282 281 282 282 283 283 285
157 168 176 181 181 178 179 180 179 182 192 201 209 221 222 220 222 234 235 233 229 226 238 239 239 247 250 251 251 250 256 258 205 219 259 272 277 278 283 290 290 285 278
157 168 171 171 176 176 180 179 176 182 195 204 208 225 228 212 228 235 239 241 243 239 240 245 248 251 253 254 254 254 253 229 206 234 254 265 266 276 289 293 292 288 284
158 162 161 166 170 170 174 176 181 188 197 204 209 222 225 210 210 218 230 243 249 252 256 256 258 259 256 249 247 252 236 206 210 232 249 262 274 280 283 288 296 305 303
149 151 157 164 168 172 177 187 189 195 196 200 208 204 205 226 228 224 215 219 222 237 251 257 246 244 242 242 238 231 224 216 223 228 236 253 268 278 283 292 288 298 290
144 154 159 160 160 161 161 164 214 196 211 221 209 200 217 232 247 245 246 245 245 244 241 241 245 245 245 242 237 233 226 227 227 225 226 236 254 269 282 288 288 288 292
155 158 154 156 159 162 165 173 184 210 216 223 231 233 230 237 251 261 265 267 266 261 246 249 251 252 253 250 243 236 232 225 218 218 225 230 240 257 271 281 287 290 291
136 147 152 158 160 163 167 169 167 169 175 220 316 289 294 291 290 289 293 288 277 267 255 261 264 266 269 266 256 247 240 227 217 218 221 226 228 241 260 269 276 281 291
118 125 130 131 135 139 140 140 143 150 155 151 78 3 2 349 351 337 357 41 258 266 276 278 272 270 268 266 262 253 244 234 223 213 219 223 223 228 249 260 270 280 286
90 107 113 119 121 124 129 135 139 142 145 151 163 181 24 39 20 345 359 342 299 279 278 278 278 273 272 267 264 258 250 241 230 225 226 227 224 227 246 259 266 275 281
94 99 104 106 113 122 127 134 137 140 148 155 173 226 220 164 201 257 284 288 281 279 280 281 280 277 269 264 260 255 250 247 238 232 230 228 223 230 240 252 263 267 275
93 95 98 106 108 110 114 117 122 130 141 154 166 283 309 94 206 255 262 266 266 263 263 268 271 265 257 252 250 249 250 249 244 236 233 231 227 233 242 252 262 271 275
92 97 95 94 98 108 106 107 117 131 150 177 204 233 266 261 255 257 263 267 270 271 270 265 268 270 261 251 243 241 247 250 244 230 227 230 230 231 233 248 260 270 275
92 101 107 109 108 114 123 133 147 168 190 210 228 241 250 253 256 260 262 265 267 267 265 261 260 264 268 264 249 240 243 251 244 229 222 228 233 233 234 245 255 260 269
94 103 113 123 132 141 154 175 198 214 225 233 238 245 250 255 259 262 261 261 265 265 267 263 258 261 264 263 259 252 256 263 258 231 213 218 230 232 234 244 253 262 266
99 113 127 142 162 181 199 217 228 234 238 243 244 246 249 253 257 260 261 261 262 263 266 262 258 261 263 263 263 265 261 258 250 237 215 213 222 230 228 239 248 255 263